Regional Weather Roundup
Issued by NWS

Home | Current Version | Previous Version | Graphics & Text | Print | Product List | Glossary On
Versions: 1 2 3 4 5 6 7 8 9 10 11 12 13 14 15 16 17 18 19 20 21 22 23 24 25 26 27 28 29 30 31 32 33 34 35 36 37 38 39 40 41 42 43 44 45 46 47 48 49 50
000
ASUS43 KMPX 200610
RWRMN
WEATHER ROUNDUP FOR MINNESOTA
NATIONAL WEATHER SERVICE TWIN CITIES/CHANHASSEN MN
1200 AM CST MON FEB 20 2017


NOTE: "FAIR" INDICATES FEW OR NO CLOUDS BELOW 12,000 FEET WITH NO
SIGNIFICANT WEATHER AND/OR OBSTRUCTIONS TO VISIBILITY. N/A MEANS
CURRENT SKY AND/OR WEATHER CONDITIONS ARE NOT AVAILABLE.

MNZ060>063-068>070-200700-
   Twin Cities Metro

CITY           SKY/WX    TMP DP  RH WIND       PRES   REMARKS
TWIN CITIES    MOCLDY    49  38  65 SE9       29.87S
6HR MIN TEMP:  49; 6HR MAX TEMP:  53;

ST PAUL        CLOUDY    50  39  66 SE12      29.89R
CRYSTAL        CLOUDY    62  38  40 SE16      29.84S
BLAINE         CLOUDY    54  39  58 SE20G28   29.85R
LAKEVILLE      PTCLDY    48  41  76 SE8       29.87S
EDEN PRAIRIE   PTCLDY    51  41  68 SE13      29.84S
6HR MIN TEMP:  51; 6HR MAX TEMP:  53;

SOUTH ST PAUL  PTCLDY    51  38  62 S9        29.87S
LAKE ELMO      FAIR      52  41  66 SE13      29.89S
$$
MNZ001>005-007-008-013>017-022>024-027-028-200700-
   Northwest Minnesota

CITY           SKY/WX    TMP DP  RH WIND       PRES   REMARKS
BEMIDJI        PTCLDY    40  33  76 SE10      29.75S
HALLOCK        PTCLDY    39  36  87 SE18      29.61S
ROSEAU         PTCLDY    43  36  75 SE18      29.69F
WARROAD        MOCLDY    45  36  70 SE18      29.71F
THIEF RVR FALL PTCLDY    41  37  86 SE14      29.67S
CROOKSTON      MOCLDY    43  41  93 SE15      29.63F
FOSSTON        CLOUDY    45  39  81 SE13G22   29.68F
DETROIT LAKES  PTCLDY    45  41  87 SE13      29.70S
MOORHEAD       CLOUDY    50  46  87 S23       29.63F
PARK RAPIDS    CLOUDY    45  38  76 SE14      29.73F
MAHNOMEN       FAIR      47  42  84 SE14      29.67S
$$
MNZ006-009>011-018-025>026-200700-
   North Central Minnesota

CITY           SKY/WX    TMP DP  RH WIND       PRES   REMARKS
BAUDETTE       PTCLDY    42  30  62 SE14      29.75F
FLAG ISLAND    CLOUDY    41  30  65 SE12G17   29.74F
INTL FALLS     PTCLDY    40  28  62 SE13      29.85F
6HR MIN TEMP:  39; 6HR MAX TEMP:  43;

WASKISH        CLOUDY    45  34  65 SE13G21   29.76F
BIG FORK       PTCLDY    41  30  65 SE10      29.83F
LONGVILLE      CLOUDY    39  32  75 SE5       29.80F
GRAND RAPIDS   CLOUDY    39  30  70 SE10G18   29.86F
CRANE LAKE     CLOUDY    36  28  75 CALM      29.93F
ORR            CLOUDY    39  27  60 SE6       29.86F
COOK           CLOUDY    39  28  65 E7        29.89F
WALKER         FAIR      42  34  73 SE7       29.77S
$$
MNZ012-019>021-037-200700-
   Northeast Minnesota

CITY           SKY/WX    TMP DP  RH WIND       PRES   REMARKS
DULUTH         CLOUDY    37  31  78 E15       29.92F
6HR MIN TEMP:  36; 6HR MAX TEMP:  38;

ELY            CLOUDY    37  28  70 SE10      29.95S
HIBBING        CLOUDY    35  29  78 E7        29.88F WCI  29
EVELETH        CLOUDY    38  26  64 E5        29.92F
DULUTH HARBOR  PTCLDY    36  34  93 NE17      29.97F
TWO HARBORS    PTCLDY    39  32  75 E9        29.95F
GRAND MARAIS     N/A     39  29  67 NE10G20   30.07S
G MARAIS ARPRT CLOUDY    34  25  69 E10       30.04S WCI  26
$$
MNZ029>031-032-039>041-046>048-054>057-064-200700-
   West Central Minnesota

CITY           SKY/WX    TMP DP  RH WIND       PRES   REMARKS
FERGUS FALLS   CLOUDY    52  46  82 SE17G26   29.71S
WHEATON        CLOUDY    50  46  87 SE18      29.66S
MORRIS         CLOUDY    50  46  87 SE14      29.69S
ALEXANDRIA     CLOUDY    48  45  89 SE12      29.74F
ELBOW LAKE     MOCLDY    51  48  87 E20G30    29.69S
WADENA         CLOUDY    43  39  87 SE8       29.74S
GLENWOOD       CLOUDY    52  46  82 SE17      29.75S
APPLETON       CLOUDY    55  46  71 S15G22    29.70S
BENSON         CLOUDY    55  45  67 S15       29.74F
ORTONVILLE     CLOUDY    50  46  87 SE14      29.68R
WILLMAR        FAIR      54  48  82 SE16      29.77S
$$
MNZ033>034-036-042>043-049>051-058-059-200700-
   Central Minnesota

CITY           SKY/WX    TMP DP  RH WIND       PRES   REMARKS
ST CLOUD       CLOUDY    48  42  80 E6        29.81R
6HR MIN TEMP:  47; 6HR MAX TEMP:  53;

SAUK CENTRE    FAIR      47  44  87 SE7       29.77S
PAYNESVILLE    MOCLDY    51  45  77 S13G20    29.78S
AITKIN         CLEAR     41  30  65 E6        29.83S
PINE RIVER     CLEAR     45  37  76 SE10      29.83S
BRAINERD       CLOUDY    48  38  68 SE15G22   29.81S
STAPLES        MOCLDY    46  39  76 SE8       29.76F
LONG PRAIRIE   FAIR      45  41  87 E10       29.78S
LITTLE FALLS   CLOUDY    46  37  71 SE9       29.80S
LITCHFIELD     CLOUDY    52  46  82 S7        29.80R
BUFFALO        CLOUDY    52  42  66 SE7       29.83R
MAPLE LAKE     CLOUDY    53  45  74 SE10G17   29.82S
HUTCHINSON     PTCLDY    50  46  85 SE8       29.82S
$$
MNZ037-044-045-052-053-200700-
   East Central Minnesota

CITY           SKY/WX    TMP DP  RH WIND       PRES   REMARKS
PRINCETON      CLOUDY    54  41  62 SE13      29.83S
MORA           CLOUDY    45  34  65 SE3       29.87S
CAMBRIDGE      CLOUDY    55  39  54 SE9G16    29.83R
RUSH CITY      CLOUDY    50  37  62 SE12G18   29.86R
MOOSE LAKE     CLOUDY    34  32  93 NE5       29.88F WCI  30
HINCKLEY       FAIR      45  34  65 NE5       29.87S
CLOQUET        CLOUDY    36  30  80 E8        29.91F
MCGREGOR       CLEAR     36  32  87 E9        29.87S
$$
MNZ071>073-080-081-089-090-097-098-200700-
   Southwest Minnesota

CITY           SKY/WX    TMP DP  RH WIND       PRES   REMARKS
MONTEVIDEO     CLOUDY    54  48  82 S12G18    29.74F
GRANITE FALLS  MOCLDY    53  48  83 SE14      29.76S
CANBY          CLOUDY    56  50  79 E12       29.71S
MARSHALL       CLOUDY    53  48  83 SE17      29.73F
REDWOOD FALLS  CLOUDY    52  46  80 S17       29.77S
OLIVIA         CLOUDY    52  46  82 S14       29.77S
PIPESTONE      CLOUDY    54  46  76 S18       29.74S
WINDOM         CLOUDY    55  46  71 S15       29.80S
WORTHINGTON    CLOUDY    51  47  86 S18       29.78S
JACKSON        CLOUDY    52  45  76 S15G23    29.83R
TRACY          CLOUDY    54  49  81 S16G23    29.75S
SLAYTON        CLOUDY    50  47  90 S12       29.77S
$$
MNZ065>067-074>077-082>085-091>093-200700-
   South Central Minnesota

CITY           SKY/WX    TMP DP  RH WIND       PRES   REMARKS
MANKATO          N/A     52  44  74 SE15      29.84R
NEW ULM        CLOUDY    52  45  76 S16       29.81R
ST JAMES       CLOUDY    52  46  82 SE15      29.83R
FAIRMONT       CLOUDY    51  45  79 S17       29.83S
GLENCOE        PTCLDY    52  47  84 SE10      29.82R
FARIBAULT      CLOUDY    52  43  71 SE12G18   29.88R
OWATONNA       CLOUDY    52  43  71 SE16      29.88S
WASECA         CLOUDY    48  43  81 SE15      29.88S
ALBERT LEA     CLOUDY    48  43  81 SE12      29.89S
$$
MNZ078>079-086>088-094>096-200700-
   Southeast Minnesota

CITY           SKY/WX    TMP DP  RH WIND       PRES   REMARKS
ROCHESTER      CLOUDY    47  40  76 S13       29.93S
6HR MIN TEMP:  44; 6HR MAX TEMP:  47;

RED WING       PTCLDY    52  36  54 SE9       29.92R
STANTON        CLOUDY    54  42  64 SE16G22   29.86S
DODGE CENTER   CLOUDY    45  39  81 SE12      29.91S
WINONA         CLOUDY    45  36  70 CALM      29.97R
AUSTIN         CLOUDY    48  43  81 SE9       29.91S
PRESTON        CLOUDY    48  38  69 SE9       29.95S
$$
ABBREVIATIONS USED IN REMARKS
   TC - TEMPERATURES IN CELSIUS
  WCI - WIND CHILL INDEX
   HX - HEAT INDEX
  VSB - VISIBILITY
$$




USA.gov is the U.S. government's official web portal to all federal, state and local government web resources and services.